User: anonymous   Login
Location: Ellerstadt
(49.4644°N, 8.2615°E)
Time: 12:39:43
(UTC+00:00)
Language:

Cosmos 1943 Rocket - Orbit

View from above orbital plane
View from above orbital plane
View from above satellite
View from above satellite

Ground track
Ground track

The orbit data is extracted from the following two-line orbital elements,

1 19120U 88039B   21131.63551779 -.00000027  00000-0  99701-5 0  9993
2 19120  71.0135 195.0552 0021462 169.8622 190.2940 14.19222852708217
Epoch (UTC): 11 May 2021 15:15:08
Eccentricity: 0.0021462
inclination: 71.0135°
perigee height: 812 km
apogee height: 843 km
right ascension of ascending node: 195.0552°
argument of perigee: 169.8622°
revolutions per day: 14.19222852
mean anomaly at epoch: 190.2940°
orbit number at epoch: 70821

The dashed part of the orbit path shows where the satellite is in the earth's shadow,  

DLR